Raleigh County Memorial Airport
KBKW : now visible

Airfield :











YOU CAN JOIN US ON...

 
LOGIN :

Register | Disclaimer

   EN    FR    IT 

 









Legend :    VFR   Marginal VFR   IFR   Intensive IFR   Very Intensive IFR
Visi :
Ceiling :
>= 8 km
>= 3000ft
5 to 8 km
1000 to 3000 ft
1500m to 5 km
500 to 1000 ft
800 to 1500m
200 to 500 ft
< 800m
< 200 ft
Symbols :   Thunderstorms  Fog  Heavy snow  Heavy precipitations  Wind > 20 kt






- Airport Elevation : 2504 ft
- IATA code : BKW


KBKW - Raleigh County Memorial

CURRENT METAR :
  • 240551Z AUTO 00000KT 10SM CLR M07/M13 A3022 RMK AO2 SLP274 T10721128 11039 21089 58008 TSNO

EXPIRED METARs :
  • 240451Z AUTO 00000KT 10SM CLR M08/M12 A3024 RMK AO2 SLP286 T10781122 410111089 TSNO

TAF KBKW
Valid from the 24 at 06:00 until the 25 at 06:00 UTC


240539Z 2406/2506 VRB03KT P6SM SKC
FM241000 13004KT P6SM BKN120
FM241900 22006KT P6SM OVC045
FM242000 21005KT 6SM -RA BR OVC030
FM242100 19005KT 4SM -RA BR OVC015
FM250100 21004KT 4SM BR OVC009
FM250300 21004KT 4SM BR OVC006
KZID FIR / North America



MET'MAP, your aeronautical weather chart ! - Copyright ORBIFLY December 2007 - Disclaimer

ORBIFLY MET'MAP TEAM :

Programming & Development : Alexandra Zaïnal
Concept & original design : Baudouin d'Aumeries
Assistance for programming : Marc-Olivier Méhu
Technical & hardware support : Manuel Goepfert

Contact : metmap@orbifly.com




SOURCES & CREDITS :

   NOAA       Earth
Advisory